KOZAKOV Weather Reports


time (UTC)temp
C
wind
direction
speed
KPH
gust
KPH
rain 1hr
cm
rain 24hr
cm
rain mn
cm
humidity
%
barometer
mb
20260508000017 5 83 6.4 11.3 0.00 0.00 0.00 100
20260507235517 5 73 11.3 11.3 0.00 0.00 0.00 100
20260507235017 5 68 6.4 6.4 0.00 0.00 0.00 100
20260507234518 5 57 6.4 6.4 0.00 0.00 0.00 100
20260507234018 5 53 3.2 3.2 0.00 0.00 0.00 100
20260507233010 5 53 3.2 6.4 0.00 0.00 0.00 100
20260507232518 5 53 6.4 6.4 0.00 0.00 0.00 100
20260507232012 5 58 6.4 6.4 0.00 0.00 0.00 100
20260507231518 5 50 6.4 6.4 0.00 0.00 0.00 100
20260507231024 5 42 6.4 6.4 0.00 0.00 0.00 100
20260507230517 5 43 6.4 6.4 0.00 0.00 0.00 100
20260507225010 5 39 6.4 6.4 0.00 0.00 0.00 100
20260507223510 5 36 6.4 6.4 0.00 0.00 0.00 100
20260507222017 5 32 6.4 6.4 0.00 0.00 0.00 100
20260507221510 5 29 6.4 11.3 0.00 0.00 0.00 100
20260507221017 5 27 6.4 11.3 0.00 0.00 0.00 100
20260507220518 5 26 6.4 6.4 0.00 0.00 0.00 100
20260507220018 5 25 6.4 11.3 0.00 0.00 0.00 100
20260507215517 5 13 3.2 6.4 0.00 0.00 0.00 100
20260507215017 5 13 6.4 6.4 0.00 0.00 0.00 100
20260507214517 5 11 3.2 6.4 0.00 0.00 0.00 100
20260507214018 5 342 0.0 0.0 0.00 0.00 0.00 100
20260507213518 5 341 0.0 3.2 0.00 0.00 0.00 100
20260507213017 5 347 0.0 3.2 0.00 0.00 0.00 100
20260507212519 5 350 3.2 6.4 0.00 0.00 0.00 100
20260507212020 5 12 0.0 6.4 0.00 0.00 0.00 100
20260507211517 5 45 3.2 6.4 0.00 0.00 0.00 100
20260507210517 5 45 0.0 3.2 0.00 0.00 0.00 100
20260507210017 5 40 6.4 6.4 0.00 0.00 0.00 100
20260507205524 5 37 6.4 11.3 0.00 0.00 0.00 100
20260507205017 5 35 11.3 11.3 0.00 0.00 0.00 100
20260507204525 6 33 11.3 11.3 0.00 0.00 0.00 100
20260507203018 6 33 6.4 6.4 0.00 0.00 0.00 100
20260507202517 6 33 3.2 6.4 0.00 0.00 0.00 100
20260507202022 6 33 3.2 3.2 0.00 0.00 0.00 100
20260507201017 6 33 6.4 6.4 0.00 0.00 0.00 100
20260507200017 6 30 6.4 6.4 0.00 0.00 0.00 100
20260507195517 6 23 6.4 6.4 0.00 0.00 0.00 100
20260507195018 6 10 3.2 3.2 0.00 0.00 0.00 100
20260507194517 6 343 3.2 3.2 0.00 0.00 0.00 100
20260507194017 7 339 6.4 6.4 0.00 0.00 0.00 100
20260507193019 7 339 3.2 6.4 0.00 0.00 0.00 100
20260507192510 7 339 6.4 6.4 0.00 0.00 0.00 100
20260507192017 6 339 3.2 6.4 0.00 0.00 0.00 100
20260507190517 7 339 6.4 6.4 0.00 0.00 0.00 100
20260507185517 7 339 3.2 3.2 0.00 0.00 0.00 100
20260507183517 7 339 6.4 6.4 0.00 0.00 0.00 100
20260507183017 7 338 6.4 11.3 0.00 0.00 0.00 100
20260507182019 7 326 6.4 6.4 0.00 0.00 0.00 100
20260507181518 7 327 6.4 11.3 0.00 0.00 0.00 100
20260507181016 7 339 6.4 11.3 0.00 0.00 0.00 100
20260507180518 7 339 6.4 6.4 0.00 0.00 0.00 100
20260507180017 7 334 6.4 11.3 0.00 0.00 0.00 100
20260507175518 7 332 6.4 11.3 0.00 0.00 0.00 100
20260507175018 7 329 6.4 11.3 0.00 0.00 0.00 100
20260507174524 7 313 11.3 11.3 0.00 0.00 0.00 100
20260507174017 7 318 11.3 14.5 0.00 0.00 0.00 100
20260507173518 7 316 11.3 14.5 0.00 0.00 0.00 100
20260507173017 7 317 11.3 14.5 0.00 0.00 0.00 100
20260507172517 7 318 14.5 17.7 0.00 0.00 0.00 100
20260507172019 7 313 17.7 17.7 0.00 0.00 0.00 100
20260507171517 7 317 11.3 14.5 0.00 0.00 0.00 100
20260507171018 7 310 11.3 17.7 0.00 0.00 0.00 100
20260507170518 7 306 11.3 14.5 0.00 0.00 0.00 100
20260507170018 7 307 11.3 14.5 0.00 0.00 0.00 100
20260507165518 7 312 11.3 14.5 0.00 0.00 0.00 100
20260507165018 7 309 14.5 17.7 0.00 0.00 0.00 100
20260507164518 7 297 14.5 17.7 0.00 0.00 0.00 100
20260507164019 7 301 14.5 17.7 0.00 0.00 0.00 100
20260507163517 7 291 14.5 20.9 0.00 0.00 0.00 100
20260507163018 7 303 11.3 11.3 0.00 0.00 0.00 100
20260507162519 7 313 6.4 11.3 0.00 0.00 0.00 100
20260507162017 8 299 11.3 14.5 0.00 0.00 0.00 100
20260507161518 8 290 6.4 14.5 0.00 0.00 0.00 100
20260507161018 10 289 11.3 14.5 0.00 0.00 0.00 100
20260507160518 8 267 14.5 17.7 0.00 0.00 0.00 100
20260507160018 8 266 17.7 20.9 0.00 0.00 0.00 100
20260507155524 10 260 14.5 20.9 0.00 0.00 0.00 100
20260507155017 10 258 14.5 17.7 0.00 0.00 0.00 100
20260507154518 10 258 17.7 25.7 0.00 0.00 0.00 100
20260507154024 11 249 11.3 17.7 0.00 0.00 0.00 100
20260507153518 11 239 14.5 20.9 0.00 0.00 0.00 100
20260507153330 10 243 17.7 20.9 0.00 0.00 0.00 100
20260507153022 10 243 17.7 20.9 0.00 0.00 0.00 100
20260507152518 10 239 20.9 20.9 0.00 0.00 0.00 100
20260507152026 10 250 20.9 29.0 0.00 0.00 0.00 100
20260507151518 10 235 14.5 20.9 0.00 0.00 0.00 100
20260507151017 10 233 17.7 25.7 0.00 0.00 0.00 100
20260507150518 10 244 11.3 14.5 0.00 0.00 0.00 100
20260507150018 10 251 11.3 14.5 0.00 0.00 0.00 100
20260507145517 10 244 17.7 20.9 0.00 0.00 0.00 100
20260507145024 10 250 17.7 25.7 0.00 0.00 0.00 100
20260507144518 10 249 17.7 20.9 0.00 0.00 0.00 100
20260507144018 10 253 14.5 14.5 0.00 0.00 0.00 100
20260507143518 10 248 14.5 17.7 0.00 0.00 0.00 100
20260507143017 10 248 6.4 11.3 0.00 0.00 0.00 100
20260507142518 10 252 14.5 17.7 0.00 0.00 0.00 100
20260507142021 8 263 14.5 17.7 0.00 0.00 0.00 100
20260507141518 8 258 14.5 17.7 0.00 0.00 0.00 100
20260507141025 10 259 14.5 20.9 0.00 0.00 0.00 100
20260507140518 10 245 14.5 17.7 0.00 0.00 0.00 100
20260507140017 8 263 17.7 20.9 0.00 0.00 0.00 100
20260507135518 8 258 20.9 25.7 0.00 0.00 0.00 100
20260507135017 8 256 20.9 25.7 0.00 0.00 0.00 100
20260507134518 8 245 25.7 32.2 0.00 0.00 0.00 100
20260507134017 8 264 17.7 25.7 0.00 0.00 0.00 100
20260507133517 8 252 20.9 20.9 0.00 0.00 0.00 100
20260507133018 8 246 14.5 20.9 0.00 0.00 0.00 100
20260507132517 8 242 11.3 14.5 0.00 0.00 0.00 100
20260507132017 8 240 14.5 20.9 0.00 0.00 0.00 100
20260507131518 8 246 17.7 25.7 0.00 0.00 0.00 100
20260507131018 8 244 14.5 20.9 0.00 0.00 0.00 100
20260507130517 8 236 14.5 20.9 0.00 0.00 0.00 100
20260507130018 8 234 14.5 20.9 0.00 0.00 0.00 100
20260507125517 8 272 20.9 29.0 0.00 0.00 0.00 100
20260507125017 8 247 25.7 29.0 0.00 0.00 0.00 100
20260507124517 10 243 20.9 29.0 0.00 0.00 0.00 100
20260507124017 8 239 20.9 29.0 0.00 0.00 0.00 100
20260507123517 8 238 17.7 20.9 0.00 0.00 0.00 100
20260507123025 8 245 17.7 29.0 0.00 0.00 0.00 100
20260507122517 8 260 20.9 29.0 0.00 0.00 0.00 100
20260507122019 8 256 20.9 29.0 0.00 0.00 0.00 100
20260507121518 8 258 20.9 29.0 0.00 0.00 0.00 100
20260507121018 8 259 20.9 29.0 0.00 0.00 0.00 100
20260507120516 8 247 14.5 20.9 0.00 0.00 0.00 100
20260507120017 8 253 17.7 25.7 0.00 0.00 0.00 100
20260507115523 8 268 14.5 25.7 0.00 0.00 0.00 100
20260507115018 8 258 17.7 20.9 0.00 0.00 0.00 100
20260507114517 8 268 17.7 25.7 0.00 0.00 0.00 100
20260507114017 7 275 17.7 29.0 0.00 0.00 0.00 100
20260507113517 7 281 14.5 20.9 0.00 0.00 0.00 100
20260507113018 7 269 14.5 20.9 0.00 0.00 0.00 100
20260507112518 8 272 17.7 25.7 0.00 0.00 0.00 100
20260507112020 8 239 20.9 25.7 0.00 0.00 0.00 100
20260507111518 10 230 11.3 20.9 0.00 0.00 0.00 100
20260507111018 10 224 11.3 14.5 0.00 0.00 0.00 100
20260507110517 10 214 14.5 17.7 0.00 0.00 0.00 100
20260507110018 10 220 17.7 25.7 0.00 0.00 0.00 100
20260507105525 8 219 17.7 20.9 0.00 0.00 0.00 100
20260507105017 8 244 14.5 17.7 0.00 0.00 0.00 100
20260507104517 8 233 14.5 25.7 0.00 0.00 0.00 100
20260507104017 8 232 14.5 17.7 0.00 0.00 0.00 100
20260507103518 8 237 14.5 20.9 0.00 0.00 0.00 100
20260507103017 7 240 14.5 17.7 0.00 0.00 0.00 100
20260507102518 7 228 14.5 17.7 0.00 0.00 0.00 100
20260507102024 7 243 11.3 14.5 0.00 0.00 0.00 100
20260507101518 7 249 17.7 20.9 0.00 0.00 0.00 100
20260507101018 7 229 14.5 25.7 0.00 0.00 0.00 100
20260507100517 7 252 11.3 14.5 0.00 0.00 0.00 100
20260507100018 7 240 14.5 20.9 0.00 0.00 0.00 100
20260507095517 7 254 17.7 25.7 0.00 0.00 0.00 100
20260507095018 7 256 17.7 25.7 0.00 0.00 0.00 100
20260507094512 7 256 17.7 20.9 0.00 0.00 0.00 100
20260507094018 7 276 11.3 14.5 0.00 0.00 0.00 100
20260507093517 7 247 14.5 17.7 0.00 0.00 0.00 100
20260507093018 7 245 11.3 14.5 0.00 0.00 0.00 100
20260507092518 7 237 17.7 20.9 0.00 0.00 0.00 100
20260507092020 7 235 11.3 17.7 0.00 0.00 0.00 100
20260507091517 7 232 14.5 17.7 0.00 0.00 0.00 100
20260507091017 7 248 14.5 17.7 0.00 0.00 0.00 100
20260507090518 7 244 17.7 20.9 0.00 0.00 0.00 100
20260507090017 7 250 14.5 17.7 0.00 0.00 0.00 100
20260507085517 7 250 20.9 32.2 0.00 0.00 0.00 100
20260507085017 7 252 25.7 32.2 0.00 0.00 0.00 100
20260507084517 7 249 20.9 25.7 0.00 0.00 0.00 100
20260507084018 7 251 17.7 25.7 0.00 0.00 0.00 100
20260507083518 7 251 17.7 20.9 0.00 0.00 0.00 100
20260507083017 7 246 17.7 25.7 0.00 0.00 0.00 100
20260507082518 7 251 20.9 25.7 0.00 0.00 0.00 100
20260507082019 7 249 20.9 29.0 0.00 0.00 0.00 100
20260507081518 7 256 17.7 29.0 0.00 0.00 0.00 100
20260507081018 7 248 17.7 25.7 0.00 0.00 0.00 100
20260507080517 7 248 17.7 20.9 0.00 0.00 0.00 100
20260507080018 7 255 17.7 20.9 0.00 0.00 0.00 100
20260507075517 7 254 20.9 32.2 0.00 0.00 0.00 100
20260507075017 7 252 20.9 25.7 0.00 0.00 0.00 100
20260507074517 7 243 20.9 29.0 0.00 0.00 0.00 100
20260507074018 7 239 17.7 25.7 0.00 0.00 0.00 100
20260507073517 7 246 20.9 25.7 0.00 0.00 0.00 100
20260507073017 7 237 17.7 25.7 0.00 0.00 0.00 100
20260507072517 7 238 17.7 25.7 0.00 0.00 0.00 100
20260507072020 7 236 20.9 25.7 0.00 0.00 0.00 100
20260507071510 7 247 20.9 25.7 0.00 0.00 0.00 100
20260507071016 7 217 20.9 25.7 0.00 0.00 0.00 100
20260507070524 7 233 20.9 29.0 0.00 0.00 0.00 100
20260507070017 7 233 17.7 32.2 0.00 0.00 0.00 100
20260507065518 7 232 14.5 20.9 0.00 0.00 0.00 100
20260507065018 7 234 14.5 20.9 0.00 0.00 0.00 100
20260507064525 7 208 11.3 17.7 0.00 0.00 0.00 100
20260507064017 7 245 17.7 25.7 0.00 0.00 0.00 100
20260507063522 7 237 17.7 17.7 0.00 0.00 0.00 100
20260507063017 7 238 17.7 20.9 0.00 0.00 0.00 100
20260507062517 7 242 14.5 17.7 0.00 0.00 0.00 100
20260507062019 7 246 17.7 20.9 0.00 0.00 0.00 100
20260507061525 7 247 17.7 20.9 0.00 0.00 0.00 100
20260507061018 7 245 17.7 20.9 0.00 0.00 0.00 100
20260507060517 7 246 17.7 20.9 0.00 0.00 0.00 100
20260507060018 7 247 20.9 25.7 0.00 0.00 0.00 100
20260507055523 7 245 17.7 20.9 0.00 0.00 0.00 100
20260507055018 7 248 17.7 20.9 0.00 0.00 0.00 100
20260507054517 7 250 17.7 25.7 0.00 0.00 0.00 100
20260507054017 7 247 17.7 20.9 0.00 0.00 0.00 100
20260507053518 7 244 20.9 25.7 0.00 0.00 0.00 100
20260507053017 7 246 14.5 20.9 0.00 0.00 0.00 100
20260507052518 7 257 17.7 20.9 0.00 0.00 0.00 100
20260507052019 7 248 25.7 29.0 0.00 0.00 0.00 100
20260507051518 7 249 17.7 20.9 0.00 0.00 0.00 100
20260507051017 7 242 17.7 25.7 0.00 0.00 0.00 100
20260507050517 7 237 17.7 25.7 0.00 0.00 0.00 100
20260507050018 7 247 17.7 25.7 0.00 0.00 0.00 100
20260507045517 7 245 17.7 20.9 0.00 0.00 0.00 100
20260507045018 7 248 14.5 17.7 0.00 0.00 0.00 100
20260507044525 7 245 14.5 20.9 0.00 0.00 0.00 100
20260507044024 7 247 14.5 17.7 0.00 0.00 0.00 100
20260507043518 7 257 17.7 17.7 0.00 0.00 0.00 100
20260507043017 7 253 17.7 20.9 0.00 0.00 0.00 100
20260507042517 7 247 17.7 20.9 0.00 0.00 0.00 100
20260507042017 7 265 11.3 17.7 0.00 0.00 0.00 100
20260507041523 7 250 14.5 25.7 0.00 0.00 0.00 100
20260507041017 7 250 14.5 14.5 0.00 0.00 0.00 100
20260507040518 7 246 14.5 17.7 0.00 0.00 0.00 100
20260507040018 7 246 14.5 14.5 0.00 0.00 0.00 100
20260507035517 7 242 11.3 14.5 0.00 0.00 0.00 100
20260507035018 7 232 14.5 17.7 0.00 0.00 0.00 100
20260507034517 7 229 11.3 14.5 0.00 0.00 0.00 100
20260507034017 7 228 11.3 14.5 0.00 0.00 0.00 100
20260507033518 7 226 11.3 17.7 0.00 0.00 0.00 100
20260507033017 7 219 6.4 11.3 0.00 0.00 0.00 100
20260507032517 7 207 11.3 17.7 0.00 0.00 0.00 100
20260507032020 7 222 11.3 14.5 0.00 0.00 0.00 100
20260507031517 7 216 11.3 14.5 0.00 0.00 0.00 100
20260507031015 7 217 11.3 14.5 0.00 0.00 0.00 100
20260507030517 7 201 11.3 17.7 0.00 0.00 0.00 100
20260507030017 7 223 11.3 17.7 0.00 0.00 0.00 100
20260507025517 7 205 11.3 14.5 0.00 0.00 0.00 100
20260507025017 7 228 14.5 17.7 0.00 0.00 0.00 100
20260507024518 7 220 11.3 14.5 0.00 0.00 0.00 100
20260507024017 7 217 11.3 17.7 0.00 0.00 0.00 100
20260507023517 7 214 11.3 14.5 0.00 0.00 0.00 100
20260507023018 7 211 14.5 17.7 0.00 0.00 0.00 100
20260507022517 7 244 14.5 17.7 0.00 0.00 0.00 100
20260507022018 7 224 11.3 14.5 0.00 0.00 0.00 100
20260507021518 7 228 17.7 20.9 0.00 0.00 0.00 100
20260507021017 7 240 14.5 17.7 0.00 0.00 0.00 100
20260507020525 7 238 14.5 17.7 0.00 0.00 0.00 100
20260507020017 7 246 11.3 14.5 0.00 0.00 0.00 100
20260507015517 7 237 14.5 17.7 0.00 0.00 0.00 100
20260507015017 7 232 17.7 20.9 0.00 0.00 0.00 100
20260507014517 7 230 17.7 20.9 0.00 0.00 0.00 100
20260507014018 7 236 17.7 20.9 0.00 0.00 0.00 100
20260507013517 7 234 17.7 20.9 0.00 0.00 0.00 100
20260507013019 7 221 11.3 14.5 0.00 0.00 0.00 100
20260507012518 7 225 11.3 14.5 0.00 0.00 0.00 100
20260507012011 7 240 14.5 17.7 0.00 0.00 0.00 100
20260507011517 7 249 14.5 14.5 0.00 0.00 0.00 100
20260507011018 7 264 14.5 17.7 0.00 0.00 0.00 100
20260507010018 7 267 14.5 17.7 0.00 0.00 0.00 100
20260507005516 7 267 17.7 20.9 0.00 0.00 0.00 100
20260507005017 7 269 14.5 17.7 0.00 0.00 0.00 100
20260507004511 7 281 17.7 20.9 0.00 0.00 0.00 100
20260507004017 8 266 14.5 25.7 0.00 0.00 0.00 100
20260507003517 8 271 20.9 29.0 0.00 0.00 0.00 100
20260507003017 8 270 20.9 25.7 0.00 0.00 0.00 100
20260507002518 8 271 17.7 20.9 0.00 0.00 0.00 100
20260507002019 8 271 14.5 17.7 0.00 0.00 0.00 100
20260507001519 8 275 17.7 20.9 0.00 0.00 0.00 100
20260507001017 8 265 14.5 17.7 0.00 0.00 0.00 100
20260507000518 7 263 11.3 14.5 0.00 0.00 0.00 100